Weather History for Gillette, WY

Change the Weather History Date:

Thursday, January 10, 2013

  Actual Average Record
Temperature  
Mean Temperature 38 °F 26 °F  
Max Temperature 51 °F 38 °F - ()
Min Temperature 25 °F 14 °F - ()
Degree Days  
Heating Degree Days 27 39  
Month to date heating degree days 387 395  
Since 1 July heating degree days 3227 3536  
Cooling Degree Days 0 0  
Month to date cooling degree days 0 0  
Year to date cooling degree days 0 0  
Moisture  
Dew Point 22 °F    
Average Humidity 65    
Maximum Humidity 100    
Minimum Humidity 29    
Precipitation  
Precipitation 0.00 in 0.01 in - ()
Month to date precipitation 0.04 0.10  
Year to date precipitation 0.04 0.10  
Sea Level Pressure  
Sea Level Pressure 29.52 in    
Wind  
Wind Speed 21 mph (WSW)    
Max Wind Speed 40 mph    
Max Gust Speed 51 mph    
Visibility 8 miles    
Events Fog    
T = Trace of Precipitation, MM = Missing Value Source: NWS Daily Summary

Daily Weather History Graph

Daily Weather History Graph

Search for Another Location

Airport:

Trip Planner

Search our weather history database for the weather conditions in past years. The results will help you decide how hot, cold, wet, or windy it might be!

Date:

Astronomy

Jan. 10, 2013 Rise Set
Actual Time 7:36 AM MST 4:43 PM MST
Civil Twilight 7:04 AM MST 5:15 PM MST
Nautical Twilight 6:27 AM MST 5:52 PM MST
Astronomical Twilight 5:53 AM MST 6:27 PM MST
Moon 6:18 AM MST (1/10) 3:54 PM MST (1/10)
Length of Visible Light 10h 11m
Length of Day
9h 06m
Waning Crescent, 2% of the Moon is Illuminated
Jan 10
Waning Crescent
Jan 11
New
Jan 18
First Quarter
Jan 26
Full
Feb 3
Last Quarter

Hourly Weather History & Observations

Time (MST) Temp. Windchill Dew Point Humidity Pressure Visibility Wind Dir Wind Speed Gust Speed Precip Events Conditions
12:53 AM 44.1 °F 34.4 °F 21.0 °F 40% 29.73 in 10.0 mi SSW 27.6 mph 33.4 mph N/A   Clear
1:53 AM 44.1 °F 34.0 °F 19.9 °F 38% 29.70 in 10.0 mi SSW 29.9 mph 42.6 mph N/A   Clear
2:53 AM 42.8 °F 33.8 °F 19.4 °F 39% 29.70 in 10.0 mi South 21.9 mph 29.9 mph N/A   Clear
3:53 AM 44.1 °F 33.7 °F 19.0 °F 37% 29.64 in 10.0 mi SSW 32.2 mph 40.3 mph N/A   Clear
4:53 AM 42.8 °F 34.0 °F 19.4 °F 39% 29.63 in 10.0 mi South 20.7 mph 33.4 mph N/A   Clear
5:53 AM 39.9 °F 30.2 °F 18.0 °F 41% 29.60 in 10.0 mi South 20.7 mph - N/A   Clear
6:53 AM 42.1 °F 31.7 °F 18.0 °F 38% 29.56 in 10.0 mi South 27.6 mph 34.5 mph N/A   Clear
7:53 AM 45.0 °F 35.1 °F 18.0 °F 34% 29.52 in 10.0 mi SSW 31.1 mph 42.6 mph N/A   Clear
8:53 AM 46.0 °F 35.8 °F 17.1 °F 31% 29.51 in 10.0 mi SSW 36.8 mph 49.5 mph N/A   Clear
9:53 AM 46.0 °F 36.5 °F 17.1 °F 31% 29.50 in 10.0 mi SSW 31.1 mph 42.6 mph N/A   Clear
10:53 AM 46.0 °F 36.7 °F 18.0 °F 33% 29.48 in 10.0 mi SSW 29.9 mph 39.1 mph N/A   Clear
11:53 AM 46.0 °F 36.2 °F 18.0 °F 33% 29.46 in 10.0 mi SW 33.4 mph 42.6 mph N/A   Clear
12:53 PM 46.0 °F 36.5 °F 19.0 °F 34% 29.44 in 10.0 mi SW 31.1 mph 39.1 mph N/A   Clear
1:53 PM 46.9 °F - 19.9 °F 34% 29.42 in 10.0 mi SSW 29.9 mph 38.0 mph N/A   Clear
2:53 PM 50.0 °F - 21.0 °F 32% 29.42 in 10.0 mi SSW 18.4 mph 32.2 mph N/A   Clear
3:53 PM 50.0 °F - 19.9 °F 31% 29.42 in 10.0 mi South 12.7 mph - N/A   Clear
4:53 PM 45.0 °F 40.6 °F 21.0 °F 39% 29.43 in 10.0 mi SSW 8.1 mph - N/A   Clear
5:53 PM 42.1 °F 37.7 °F 21.0 °F 43% 29.45 in 10.0 mi West 6.9 mph - N/A   Clear
6:53 PM 39.0 °F 31.4 °F 21.0 °F 49% 29.44 in 10.0 mi West 12.7 mph - N/A   Clear
7:53 PM 30.0 °F 25.2 °F 21.9 °F 72% 29.47 in 10.0 mi NW 4.6 mph - N/A   Clear
8:51 PM 26.6 °F 17.5 °F 26.6 °F 100% 29.48 in 10.0 mi North 9.2 mph - N/A   Scattered Clouds
8:53 PM 27.0 °F 18.7 °F 26.1 °F 96% 29.50 in 10.0 mi North 8.1 mph - N/A   Scattered Clouds
9:00 PM 26.6 °F 20.0 °F 26.6 °F 100% 29.48 in 10.0 mi NNE 5.8 mph - N/A   Mostly Cloudy
9:53 PM 28.0 °F 18.1 °F 27.0 °F 96% 29.52 in 10.0 mi North 11.5 mph - N/A   Overcast
10:28 PM 28.4 °F 19.7 °F 26.6 °F 93% 29.49 in 10.0 mi NNW 9.2 mph - N/A   Overcast
10:50 PM 28.4 °F 18.0 °F 26.6 °F 93% 29.49 in 2.0 mi NNW 12.7 mph - N/A   Overcast
10:53 PM 28.0 °F 16.5 °F 27.0 °F 96% 29.52 in 1.0 mi North 15.0 mph - N/A   Overcast
11:00 PM 26.6 °F 15.2 °F 26.6 °F 100% 29.50 in 0.5 mi NNW 13.8 mph - N/A Fog Light Freezing Fog
11:38 PM 24.8 °F 11.5 °F 24.8 °F 100% 29.50 in 1.0 mi North 17.3 mph - N/A   Mist
11:53 PM 25.0 °F 13.6 °F 25.0 °F 100% 29.54 in 1.2 mi North 12.7 mph - N/A   Overcast